Aberdeen, SD

10:28 PM CDT on August 24, 2016 (GMT -0500)
Aberdeen Regional

Weather History for KABR - July, 2013

Change the Weather History Date:

Saturday, July 27, 2013

  Actual Average Record
Temperature  
Mean Temperature 56 °F 72 °F  
Max Temperature 71 °F 84 °F 110 °F (1931)
Min Temperature 41 °F 59 °F 41 °F (2013)
Degree Days  
Heating Degree Days 9 0  
Month to date heating degree days 16 8  
Since 1 June heating degree days 97 84  
Since 1 July heating degree days 16 8  
Cooling Degree Days 0 7  
Month to date cooling degree days 192 180  
Year to date cooling degree days 309 295  
Since 1 June cooling degree days 288 272  
Growing Degree Days 6 (Base 50)    
Moisture  
Dew Point 43 °F    
Average Humidity 65    
Maximum Humidity 93    
Minimum Humidity 36    
Precipitation  
Precipitation 0.00 in 0.08 in 2.14 in (1914)
Month to date precipitation 2.37 2.68  
Year to date precipitation 13.09 13.52  
Sea Level Pressure  
Sea Level Pressure 30.15 in    
Wind  
Wind Speed 6 mph (North)    
Max Wind Speed 15 mph    
Max Gust Speed 26 mph    
Visibility 10 miles    
Events      
T = Trace of Precipitation, MM = Missing Value Source: NWS Daily Summary

Daily Weather History Graph

Daily Weather History Graph

Search for Another Location

Airport or City:

Trip Planner

Search our weather history database for the weather conditions in past years. The results will help you decide how hot, cold, wet, or windy it might be!

Date:

Astronomy

Jul. 27, 2013 Rise Set
Actual Time 6:12 AM CDT 9:07 PM CDT
Civil Twilight 5:37 AM CDT 9:41 PM CDT
Nautical Twilight 4:53 AM CDT 10:26 PM CDT
Astronomical Twilight 4:00 AM CDT 11:18 PM CDT
Moon 11:33 PM CDT (7/27) 12:14 PM CDT (7/27)
Length of Visible Light 16h 04m
Length of Day
14h 54m
Waning Gibbous, 70% of the Moon is Illuminated
Jul 27
Waning Gibbous
Jul 29
Last Quarter
Aug 6
New
Aug 14
First Quarter
Aug 20
Full

Hourly Weather History & Observations

Time (CDT) Temp. Windchill Dew Point Humidity Pressure Visibility Wind Dir Wind Speed Gust Speed Precip Events Conditions
12:53 AM 50.0 °F - 46.0 °F 86% 30.20 in 10.0 mi NNW 4.6 mph - N/A   Clear
1:53 AM 48.9 °F - 46.0 °F 90% 30.21 in 10.0 mi NNW 5.8 mph - N/A   Partly Cloudy
2:53 AM 46.9 °F - 44.1 °F 90% 30.21 in 10.0 mi NNW 6.9 mph - N/A   Clear
3:53 AM 46.0 °F 43.1 °F 44.1 °F 93% 30.21 in 10.0 mi NNW 5.8 mph - N/A   Partly Cloudy
4:53 AM 45.0 °F 41.2 °F 43.0 °F 93% 30.22 in 10.0 mi North 6.9 mph - N/A   Clear
5:53 AM 44.1 °F 40.8 °F 42.1 °F 93% 30.22 in 10.0 mi NNW 5.8 mph - N/A   Clear
6:53 AM 44.1 °F 40.8 °F 42.1 °F 93% 30.23 in 10.0 mi North 5.8 mph - N/A   Clear
7:53 AM 48.9 °F - 45.0 °F 86% 30.22 in 10.0 mi NNW 6.9 mph - N/A   Clear
8:53 AM 54.0 °F - 44.1 °F 69% 30.22 in 10.0 mi NNE 8.1 mph - N/A   Clear
9:53 AM 60.1 °F - 43.0 °F 53% 30.20 in 10.0 mi NNE 8.1 mph - N/A   Clear
10:53 AM 62.1 °F - 41.0 °F 46% 30.20 in 10.0 mi NNE 11.5 mph - N/A   Clear
11:53 AM 64.0 °F - 41.0 °F 43% 30.18 in 10.0 mi NNW 10.4 mph 17.3 mph N/A   Partly Cloudy
12:53 PM 66.0 °F - 42.1 °F 42% 30.16 in 10.0 mi North 9.2 mph - N/A   Mostly Cloudy
1:53 PM 66.9 °F - 41.0 °F 39% 30.14 in 10.0 mi North 5.8 mph - N/A   Scattered Clouds
2:53 PM 69.1 °F - 41.0 °F 36% 30.12 in 10.0 mi Variable 4.6 mph - N/A   Mostly Cloudy
3:53 PM 68.0 °F - 42.1 °F 39% 30.10 in 10.0 mi NNW 9.2 mph - N/A   Partly Cloudy
4:53 PM 70.0 °F - 43.0 °F 38% 30.09 in 10.0 mi NNW 8.1 mph 23.0 mph N/A   Partly Cloudy
5:53 PM 69.1 °F - 43.0 °F 39% 30.07 in 10.0 mi NE 10.4 mph - N/A   Partly Cloudy
6:53 PM 69.1 °F - 43.0 °F 39% 30.06 in 10.0 mi North 4.6 mph - N/A   Clear
7:53 PM 66.9 °F - 43.0 °F 42% 30.06 in 10.0 mi NE 4.6 mph - N/A   Clear
8:53 PM 62.1 °F - 46.9 °F 58% 30.06 in 10.0 mi NE 3.5 mph - N/A   Clear
9:53 PM 55.9 °F - 46.0 °F 69% 30.08 in 10.0 mi Calm Calm - N/A   Clear
10:53 PM 53.1 °F - 45.0 °F 74% 30.08 in 9.0 mi NE 4.6 mph - N/A   Clear
11:53 PM 50.0 °F - 44.1 °F 80% 30.08 in 10.0 mi Calm Calm - N/A   Clear